[[{"header":{"parameterUnit":"m.s-1","parameterCategory":1,"la1":30.2991,"la2":30.254,"lo1":-89.0895,"lo2":-89.0444,"dy":0.0017,"dx":0.0017,"nx":28,"ny":28,"refTime":"2025-11-21T03:00:00:Z","depth":0,"parameterNumber":2,"parameterNumberName":"U-component_of_WINDS"},"data":[0,0,0,0,0,0,0,0,0,0,0,0,0,0,0,0,0,0,0,0,0,0,0,0,0,0,0,0,0,0,0,0,0,0,0,0,0,0,0,0,0,0,0,0,0,0,0,0,0,0,0,0,0,0,0,0,0,0,-0.5518,-0.5518,0,-0.5541,-0.5542,-0.5542,-0.5575,-0.5576,-0.5576,-0.5577,-0.5599,-0.5599,-0.5599,0,0,0,0,0,0,0,0,0,0,0,0,0,-0.55,-0.5501,-0.5518,-0.5518,-0.5519,-0.5541,-0.5542,-0.5542,-0.5575,-0.5576,-0.5577,-0.5577,-0.5599,-0.5599,-0.5599,0,0,0,0,0,0,0,0,0,0,0,0,0,-0.5514,-0.5501,-0.5518,-0.5538,-0.554,-0.5541,-0.5542,-0.5542,-0.5575,-0.5576,-0.5577,-0.5578,-0.5599,-0.5599,-0.5599,-0.5582,0,0,-0.56,-0.56,0,0,0,0,0,0,0,0,-0.5513,-0.5515,-0.5535,-0.5537,-0.5539,-0.5556,-0.5544,-0.5556,-0.5575,-0.5562,-0.5577,-0.5578,-0.5584,-0.5585,-0.5588,-0.5583,-0.5584,-0.56,-0.56,-0.56,-0.56,0,0,0,0,0,0,0,-0.5513,-0.5514,-0.5527,-0.5535,-0.5537,-0.5545,-0.5548,-0.5546,-0.5568,-0.5563,-0.5565,-0.5568,-0.5585,-0.5588,-0.5589,-0.5585,-0.56,-0.56,-0.56,-0.56,-0.5567,-0.5566,0,0,0,0,0,0,-0.5509,-0.5513,-0.5526,-0.5528,-0.5528,-0.5545,-0.5548,-0.555,-0.5568,-0.5571,-0.5567,-0.5569,-0.5587,-0.5589,-0.559,-0.557,-0.56,-0.56,-0.56,-0.5568,-0.5567,-0.5566,0,0,0,0,0,0,-0.5508,-0.551,-0.5526,-0.5521,-0.5524,-0.5544,-0.5546,-0.555,-0.5552,-0.5571,-0.5575,-0.5565,-0.5588,-0.5589,-0.5584,-0.5571,-0.56,-0.56,-0.5569,-0.5568,-0.5566,-0.5532,0,0,0,0,0,0,-0.5508,-0.5509,-0.5503,-0.5521,-0.5524,-0.552,-0.5545,-0.555,-0.5552,-0.5556,-0.5571,-0.5574,-0.5589,-0.5584,-0.5584,-0.5572,-0.56,-0.557,-0.5568,-0.5567,-0.5534,-0.5529,-0.5525,0,0,0,0,0,-0.5507,-0.5492,-0.5503,-0.5504,-0.5517,-0.5519,-0.5521,-0.5539,-0.5551,-0.5545,-0.5557,-0.5573,-0.5573,-0.5583,-0.5584,-0.5571,-0.5571,-0.5569,-0.5567,-0.5536,-0.553,-0.5525,0,0,0,0,0,0,-0.5472,-0.5495,-0.5507,-0.5498,-0.5506,-0.5525,-0.5517,-0.5532,-0.5537,-0.5539,-0.5561,-0.5564,-0.5555,-0.5563,-0.5574,-0.5556,-0.5574,-0.5572,-0.5551,-0.5545,-0.5541,-0.5539,-0.56,0,0,0,0,0,-0.5464,-0.5464,-0.5484,-0.5474,-0.5478,-0.5497,-0.5498,-0.5511,-0.5521,-0.5524,-0.5536,-0.5544,-0.5546,-0.5546,-0.5549,-0.5536,-0.5539,-0.5528,-0.5523,-0.552,-0.5517,-0.551,-0.5505,-0.5559,-0.5559,-0.5559,0,0,-0.5446,-0.5458,-0.5457,-0.5467,-0.5475,-0.5474,-0.5499,-0.5497,-0.5497,-0.5524,-0.5519,-0.5528,-0.5538,-0.5529,-0.5525,-0.5535,-0.5503,-0.5517,-0.5514,-0.5514,-0.5507,-0.5502,-0.5497,-0.5558,-0.5558,-0.5558,0,0,-0.5412,-0.5422,-0.5415,-0.5422,-0.5435,-0.5448,-0.5446,-0.5462,-0.5469,-0.5465,-0.5485,-0.5484,-0.5487,-0.5493,-0.5497,-0.5466,-0.5481,-0.5467,-0.5443,-0.5436,-0.5431,-0.5428,-0.5415,-0.5411,-0.5464,-0.5464,-0.5464,0,-0.5388,-0.5388,-0.5409,-0.5405,-0.5409,-0.5434,-0.5426,-0.5433,-0.5445,-0.5446,-0.5458,-0.5461,-0.547,-0.5462,-0.5454,-0.5457,-0.5455,-0.5464,-0.5431,-0.5427,-0.5424,-0.5412,-0.5408,-0.5462,-0.5463,-0.5463,-0.5463,0,-0.5357,-0.5357,-0.5349,-0.536,-0.5363,-0.5358,-0.5377,-0.5377,-0.539,-0.5402,-0.5397,-0.5409,-0.5414,-0.5413,-0.5426,-0.5407,-0.5412,-0.5427,-0.5446,-0.5416,-0.5406,-0.5402,-0.546,-0.546,-0.5461,-0.5461,0,0,-0.5301,-0.5325,-0.5321,-0.5326,-0.5342,-0.5342,-0.5337,-0.5343,-0.5342,-0.535,-0.5346,-0.5348,-0.5361,-0.5365,-0.5379,-0.5373,-0.5346,-0.5388,-0.5389,-0.5379,-0.5324,-0.5312,-0.5307,-0.5357,-0.5356,-0.5356,-0.5323,0,-0.5269,-0.5263,-0.5282,-0.527,-0.5269,-0.5294,-0.529,-0.5299,-0.5309,-0.531,-0.5322,-0.5323,-0.5341,-0.5344,-0.5339,-0.535,-0.5335,-0.5353,-0.5352,-0.5352,-0.5347,-0.5301,-0.5288,-0.5257,-0.5319,-0.5318,-0.5318,0,-0.5231,-0.5237,-0.5225,-0.5241,-0.5242,-0.5238,-0.5244,-0.5245,-0.5255,-0.5264,-0.5268,-0.5285,-0.5281,-0.53,-0.5294,-0.5306,-0.5307,-0.5312,-0.5312,-0.5311,-0.5332,-0.5298,-0.5248,-0.5242,-0.5312,-0.5312,-0.5313,0,-0.5189,-0.5195,-0.5189,-0.5193,-0.5211,-0.5208,-0.5215,-0.5227,-0.5229,-0.5234,-0.5236,-0.5241,-0.5243,-0.5246,-0.5263,-0.5276,-0.5255,-0.5276,-0.526,-0.526,-0.5253,-0.5253,-0.5201,-0.5257,-0.5257,-0.5257,-0.5257,0,-0.5151,-0.5142,-0.517,-0.5166,-0.5157,-0.5179,-0.5169,-0.5179,-0.5189,-0.5187,-0.5209,-0.5206,-0.523,-0.523,-0.5243,-0.5235,-0.5237,-0.5242,-0.5246,-0.5239,-0.5238,-0.5239,-0.5241,-0.5256,-0.5256,-0.5256,-0.5256,0,-0.5102,-0.512,-0.5115,-0.5134,-0.5138,-0.513,-0.5146,-0.5143,-0.5156,-0.5152,-0.5153,-0.5172,-0.5173,-0.5191,-0.5196,-0.5205,-0.5191,-0.5199,-0.5187,-0.5189,-0.5172,-0.5173,-0.5117,-0.511,-0.5171,-0.5171,-0.517,0,-0.5075,-0.507,-0.5088,-0.5088,-0.5095,-0.5095,-0.5097,-0.5119,-0.512,-0.5132,-0.5127,-0.513,-0.5133,-0.5133,-0.5147,-0.515,-0.5158,-0.5138,-0.5158,-0.5152,-0.5156,-0.5155,-0.5154,-0.5133,-0.5132,-0.5132,-0.5131,0,-0.5026,-0.5035,-0.5038,-0.5044,-0.5046,-0.5052,-0.5058,-0.5057,-0.5081,-0.5081,-0.5083,-0.5085,-0.509,-0.5092,-0.5098,-0.5106,-0.5121,-0.5125,-0.5121,-0.5114,-0.5107,-0.5109,-0.5174,-0.5126,-0.5126,-0.5127,-0.5127,-0.5127,-0.4986,-0.4982,-0.4994,-0.4996,-0.5004,-0.501,-0.5007,-0.502,-0.5022,-0.5027,-0.504,-0.5039,-0.505,-0.506,-0.5066,-0.5065,-0.5075,-0.507,-0.5068,-0.5066,-0.5062,-0.5108,-0.5066,-0.5066,-0.5066,-0.5067,-0.5067,0,-0.4936,-0.4945,-0.4947,-0.4956,-0.4958,-0.4975,-0.4983,-0.4983,-0.4982,-0.4991,-0.4994,-0.4995,-0.4997,-0.5012,-0.5015,-0.5012,-0.5019,-0.5012,-0.5011,-0.5013,-0.5054,-0.5056,-0.5006,-0.5006,-0.5006,-0.5006,-0.5006,-0.5006,-0.491,-0.4903,-0.4914,-0.4911,-0.4921,-0.492,-0.4923,-0.4929,-0.4936,-0.4936,-0.4938,-0.4948,-0.4959,-0.4964,-0.4966,-0.4971,-0.497,-0.496,-0.4966,-0.5004,-0.501,-0.5015,-0.5017,-0.496,-0.496,-0.4925,-0.4925,-0.4925]},{"header":{"parameterUnit":"m.s-1","parameterCategory":1,"la1":30.2991,"la2":30.254,"lo1":-89.0895,"lo2":-89.0444,"dy":0.0017,"dx":0.0017,"nx":28,"ny":28,"refTime":"2025-11-21T03:00:00:Z","depth":0,"parameterNumber":3,"parameterNumberName":"V-component_of_WINDS"},"data":[0,0,0,0,0,0,0,0,0,0,0,0,0,0,0,0,0,0,0,0,0,0,0,0,0,0,0,0,0,0,0,0,0,0,0,0,0,0,0,0,0,0,0,0,0,0,0,0,0,0,0,0,0,0,0,0,0,0,4.4653,4.4656,0,4.4866,4.4869,4.4871,4.4908,4.4906,4.4904,4.4903,4.5119,4.5127,4.5134,0,0,0,0,0,0,0,0,0,0,0,0,0,4.4279,4.4285,4.4653,4.4656,4.4659,4.4866,4.4869,4.4872,4.4908,4.4906,4.4904,4.4902,4.5117,4.5126,4.5135,0,0,0,0,0,0,0,0,0,0,0,0,0,4.4461,4.4287,4.4653,4.4702,4.4708,4.4865,4.4869,4.4873,4.4909,4.4906,4.4903,4.4901,4.5114,4.5125,4.5136,4.5258,0,0,4.517,4.5175,0,0,0,0,0,0,0,0,4.4451,4.4475,4.4692,4.4699,4.4706,4.4858,4.4816,4.5002,4.4909,4.4833,4.4903,4.4899,4.5034,4.5052,4.5098,4.5269,4.5278,4.5171,4.5178,4.5182,4.5186,0,0,0,0,0,0,0,4.4438,4.4466,4.4737,4.4695,4.4704,4.4713,4.4736,4.4852,4.4946,4.4839,4.4842,4.4867,4.5038,4.5087,4.5103,4.5281,4.5171,4.5181,4.5187,4.5192,4.5567,4.557,0,0,0,0,0,0,4.4417,4.4455,4.4731,4.4744,4.4569,4.4722,4.4748,4.4812,4.4945,4.4962,4.4869,4.4868,4.5069,4.509,4.5111,4.5266,4.5182,4.5193,4.5199,4.5564,4.5567,4.5571,0,0,0,0,0,0,4.4409,4.4441,4.4722,4.4601,4.4637,4.4732,4.4803,4.4817,4.4867,4.4968,4.4984,4.4902,4.5068,4.5095,4.5222,4.5274,4.5198,4.5208,4.556,4.5565,4.5569,4.5575,0,0,0,0,0,0,4.4398,4.4438,4.4485,4.4601,4.4643,4.483,4.4806,4.4824,4.4886,4.4887,4.5003,4.502,4.5068,4.5206,4.5233,4.5288,4.5217,4.5555,4.5562,4.5568,4.5571,4.558,4.5588,0,0,0,0,0,4.4384,4.4477,4.4487,4.452,4.4705,4.4833,4.4857,4.4911,4.489,4.4939,4.5004,4.5016,4.5263,4.5218,4.525,4.5309,4.5553,4.556,4.5567,4.5567,4.5578,4.5587,0,0,0,0,0,0,4.4364,4.4493,4.4506,4.464,4.4725,4.4839,4.4902,4.492,4.5013,4.501,4.5072,4.5098,4.5223,4.5278,4.5226,4.5436,4.5406,4.542,4.5396,4.5407,4.5415,4.54,4.5226,0,0,0,0,0,4.4375,4.4468,4.4576,4.4684,4.4726,4.4807,4.4865,4.4899,4.499,4.5026,4.51,4.5188,4.5286,4.5349,4.5444,4.5579,4.5606,4.5635,4.5643,4.5649,4.5661,4.5739,4.5754,4.5595,4.5595,4.5595,0,0,4.4399,4.4481,4.4536,4.4682,4.4752,4.4849,4.4837,4.4938,4.5011,4.5041,4.5167,4.5225,4.5327,4.5459,4.5521,4.5509,4.5711,4.5658,4.5663,4.5672,4.5748,4.5763,4.5777,4.56,4.5599,4.5598,0,0,4.4492,4.4563,4.4662,4.4733,4.484,4.4893,4.4917,4.5029,4.5069,4.5196,4.5222,4.5308,4.5475,4.5548,4.5606,4.5729,4.5745,4.5758,4.5802,4.5877,4.589,4.5901,4.5948,4.5964,4.5769,4.5769,4.5769,0,4.4508,4.4655,4.471,4.4812,4.4876,4.4909,4.5011,4.5077,4.5209,4.5253,4.5238,4.545,4.552,4.5671,4.5702,4.5747,4.5777,4.5746,4.5883,4.5896,4.5907,4.5952,4.5969,4.577,4.577,4.577,4.577,0,4.4671,4.4771,4.4838,4.4967,4.5039,4.514,4.5211,4.5277,4.5305,4.536,4.5491,4.5577,4.5692,4.573,4.5757,4.5886,4.5875,4.5871,4.5843,4.5923,4.5966,4.5984,4.5772,4.5772,4.5771,4.5771,0,0,4.4757,4.4917,4.4941,4.5001,4.5123,4.5202,4.5304,4.5418,4.5474,4.5564,4.5654,4.5795,4.5792,4.5859,4.5895,4.5961,4.6057,4.5949,4.5952,4.5968,4.6206,4.6211,4.623,4.6067,4.607,4.6073,4.6199,0,4.4867,4.5053,4.5107,4.5263,4.5359,4.5392,4.5482,4.5567,4.5621,4.571,4.5769,4.587,4.5857,4.5898,4.5965,4.6031,4.6106,4.6022,4.6152,4.6156,4.6128,4.6252,4.6257,4.6372,4.6216,4.6219,4.6221,0,4.502,4.5116,4.5282,4.5394,4.5436,4.5516,4.5625,4.5709,4.5806,4.5841,4.5917,4.5948,4.6058,4.6022,4.6175,4.6117,4.6173,4.6214,4.622,4.6236,4.6195,4.6274,4.641,4.6428,4.6248,4.6246,4.6244,0,4.5071,4.524,4.5363,4.5412,4.5545,4.5601,4.5659,4.5753,4.5819,4.5914,4.5958,4.6064,4.6122,4.6204,4.6264,4.6232,4.6413,4.6381,4.6447,4.6445,4.6485,4.6482,4.6633,4.6516,4.6516,4.6516,4.6515,0,4.519,4.5291,4.5388,4.5463,4.5578,4.5639,4.5751,4.581,4.5894,4.5982,4.6016,4.6098,4.6171,4.6263,4.631,4.6431,4.6456,4.6489,4.6501,4.6488,4.6484,4.6527,4.6522,4.652,4.6519,4.6518,4.6518,0,4.5266,4.5335,4.5471,4.5586,4.5617,4.5697,4.5796,4.5871,4.5926,4.6038,4.6067,4.6155,4.6265,4.6332,4.6471,4.6503,4.6637,4.6644,4.6605,4.6611,4.6674,4.6668,4.686,4.689,4.675,4.6751,4.6752,0,4.5339,4.5418,4.5542,4.5604,4.5663,4.5762,4.5829,4.5892,4.5962,4.6079,4.6141,4.6253,4.6347,4.6521,4.6598,4.6705,4.6717,4.6777,4.6733,4.6718,4.6721,4.6717,4.6727,4.6785,4.6786,4.6787,4.6788,0,4.5461,4.5492,4.5588,4.5698,4.5778,4.5866,4.5955,4.6003,4.6082,4.6158,4.6272,4.6344,4.6488,4.66,4.6714,4.6774,4.6795,4.68,4.6822,4.6811,4.6786,4.6803,4.6628,4.6796,4.6795,4.6795,4.6794,4.6794,4.5541,4.5614,4.5713,4.582,4.5894,4.5976,4.6053,4.6119,4.6215,4.6338,4.6369,4.6489,4.6586,4.6741,4.6804,4.6899,4.689,4.692,4.6928,4.6935,4.6938,4.6768,4.6919,4.6919,4.6919,4.6919,4.6919,0,4.5668,4.5734,4.5831,4.5955,4.604,4.6052,4.6151,4.6221,4.6327,4.6415,4.6508,4.664,4.6749,4.6834,4.6947,4.7007,4.7019,4.7034,4.7032,4.7046,4.6938,4.691,4.7022,4.7022,4.7022,4.7022,4.7022,4.7022,4.5744,4.5869,4.5912,4.6074,4.614,4.6258,4.6314,4.6391,4.6463,4.6609,4.67,4.6755,4.6844,4.6963,4.7064,4.7087,4.7128,4.7142,4.7166,4.7064,4.7053,4.7042,4.7016,4.7149,4.7149,4.7266,4.7267,4.7268]}]]